World > North America > United States > Missouri > Turney  

Turney, MO Hourly Weather Updates

Feedback E-mail the Weather

Quick Clicks

Turney, MO Weather Maps

°F °C°F °C
Turney Weather Map
UTC Time: 6/19/2024, 14:16
Your Time:

Turney, MO Regional Weather

Expires:202406191500;;295774
ASUS43 KEAX 191415
RWREAX

WEATHER ROUNDUP FOR EASTERN KANSAS AND NORTHWEST MISSOURI
NATIONAL WEATHER SERVICE KANSAS CITY/PLEASANT HILL MO
900 AM CDT WED JUN 19 2024


MOZ001>008-011>017-020>025-030>033-038>040-044>046-053-054-191500-
...NORTHERN AND CENTRAL MISSOURI...
  
CITY           SKY/WX    TMP DP  RH WIND       PRES   REMARKS
ST. JOSEPH     RAIN      70  69  97 NE5       30.15S FOG              
MOSBY          CLOUDY    73  68  83 CALM      30.16R                  
HARRISONVILLE  PTSUNNY   77  70  78 S6        30.18R                  
WHITEMAN AFB   PTSUNNY   77  68  73 S12       30.15R                  
CLINTON        PTSUNNY   77  70  78 S6        30.16R                  
SEDALIA        PTSUNNY   76  68  76 S8        30.18R                  
MARSHALL       CLOUDY    75  68  78 S6        30.18R                  
CHILLICOTHE      N/A     76  70  82 CALM      30.15R                  
MOBERLY        SUNNY     79  64  61 SW10      30.18R                  
KIRKSVILLE     MOSUNNY   77  68  73 SW10      30.17R                  

$$


SKY/WX - Weather  TMP - Temperature  DP - Dew Point  RH - Humidity
WIND - Wind Direction/Speed PRES - Barometric Pressure VSB - Visibility
WCI - Wind Chill Index E13G22 Wind - East Wind 13 mph/Gusts of 22 mph

Trending Headlines

Trending Entertainment Headlines

Turney Radar Loop

Use the map search tool if you want to place a location marker on the radar map...

Turney Quick Facts

National Two Day Weather Forecast


E-mail the Turney Weather Forecast

Voice your opinion or tell us about page issues...